Dewpoint
60 60 56 50 49 51 50 56 46 49 50 43 42 42 44 47 50 47 46 47 45 46 46 47 47 48 48 46 46 47 48 45 45 44 43 50 58 58 58 57 58 58 56 56 57 58 57 58 58 58 58 58 58 56 56 56 55 54 55 55 55 55 54 54 54 54 54 55 55 55 55 55 55 55 54 55 57 57 56 56 57 57 56 56 56 54 53 54 54 55 54 54 54 54 54 54 53
50 49 50 51 52 54 52 59 49 45 45 41 40 43 47 51 46 46 45 45 45 45 46 46 46 47 47 47 47 48 47 49 49 49 52 56 58 59 58 57 56 56 55 56 56 57 56 56 57 58 58 57 56 56 55 54 53 54 54 53 53 53 54 53 54 54 54 55 56 56 55 55 55 55 54 54 55 55 56 55 56 55 55 56 56 55 54 53 54 53 53 53 53 53 53 53 52
52 51 49 51 51 54 58 57 44 41 41 40 43 45 49 48 45 44 45 44 44 45 45 45 46 47 47 48 46 44 42 51 51 52 52 56 53 56 56 56 54 54 55 55 54 55 54 55 57 57 56 55 54 54 53 52 52 51 52 53 53 54 55 53 53 54 55 54 54 55 55 56 55 53 51 53 53 53 54 55 55 55 55 55 55 54 52 52 52 53 52 53 52 53 52 52 51
61 55 56 55 53 50 47 52 45 42 40 41 41 46 47 46 43 43 43 43 42 42 44 43 43 45 44 44 46 47 47 49 51 52 52 54 55 55 55 54 54 53 54 54 53 53 54 55 55 56 55 54 53 52 52 53 52 52 52 53 52 54 55 55 54 54 54 54 54 54 54 54 54 52 52 52 52 53 54 54 54 54 53 53 53 53 52 52 52 52 51 52 52 52 52 52 51
54 58 58 53 52 50 49 46 44 45 42 44 42 46 45 46 45 42 41 43 42 43 44 44 43 46 46 46 46 46 47 50 51 51 53 55 55 55 53 53 52 53 54 53 53 52 53 55 55 54 54 54 52 54 54 53 52 51 51 52 52 54 54 54 55 54 54 53 53 53 52 52 52 51 51 51 51 52 52 52 54 53 52 53 52 52 51 51 51 51 51 51 51 52 53 52 52
50 52 57 57 47 59 49 44 43 44 47 45 47 43 43 43 42 41 41 42 44 44 46 45 42 44 44 45 46 45 48 48 51 52 53 54 54 54 52 54 52 53 53 52 51 51 52 55 54 54 54 53 53 53 52 52 51 52 55 54 53 53 54 54 54 54 52 51 51 49 50 51 50 50 50 50 50 49 51 51 52 52 52 51 51 51 50 50 50 51 51 50 50 50 51 52 52
54 50 54 53 52 51 45 44 44 47 48 40 34 43 45 44 41 40 40 40 43 45 48 44 44 44 42 45 45 47 48 49 50 51 53 53 54 52 52 51 51 52 54 52 52 52 52 54 54 54 53 52 53 53 53 52 51 52 54 55 55 55 54 53 52 52 52 50 48 48 49 50 50 50 49 49 49 49 49 49 50 51 51 51 52 52 51 51 50 50 50 50 51 51 51 52 51
60 53 53 49 49 49 45 45 45 49 46 40 32 34 41 43 41 40 41 39 39 41 46 49 46 43 43 46 42 46 48 50 50 51 51 51 53 51 52 51 51 50 51 51 52 51 54 54 53 53 53 53 53 52 52 53 54 55 56 55 54 53 52 51 50 49 49 48 47 47 48 49 49 50 49 48 47 47 47 47 49 48 48 49 51 51 51 50 50 50 50 51 51 51 51 51 50
54 52 55 50 45 49 44 43 46 47 44 40 36 31 36 39 42 42 40 41 42 44 44 45 48 41 42 44 44 46 47 48 49 52 50 50 51 51 50 50 50 50 50 50 50 50 50 55 53 52 53 52 52 52 54 54 55 55 54 53 53 53 51 50 49 48 47 47 46 47 48 47 48 47 48 47 46 46 48 48 47 48 47 48 50 50 49 49 49 49 50 50 50 50 50 50 49
55 53 48 47 48 42 43 43 44 41 38 35 34 34 34 36 42 41 40 39 41 43 44 44 47 43 43 43 44 46 47 48 48 47 46 47 49 50 49 49 50 49 49 49 49 50 50 53 52 52 52 52 53 52 52 52 52 53 52 50 50 49 49 48 48 47 47 47 46 46 46 47 46 46 47 47 46 46 46 47 47 47 47 48 49 49 49 49 48 48 49 50 50 50 49 48 47
48 52 53 48 45 43 42 42 45 39 38 33 33 33 32 35 42 42 43 42 43 43 44 45 44 44 44 44 45 47 48 48 46 45 45 46 48 49 49 49 49 49 48 48 49 49 48 50 53 52 51 52 52 51 51 51 50 50 49 49 48 47 47 47 47 47 46 46 46 46 47 46 45 46 46 46 47 46 47 46 46 47 47 47 47 47 49 48 47 47 47 47 47 47 47 46 45
49 47 49 42 41 44 46 46 47 40 35 37 37 34 35 37 43 42 43 42 42 43 42 45 45 47 44 43 43 46 47 47 44 43 43 44 45 49 48 49 48 49 48 48 48 47 48 48 49 51 52 51 50 50 48 48 48 47 47 47 47 47 46 46 47 47 46 45 45 47 46 46 45 43 45 46 47 46 46 46 46 46 46 47 47 48 47 47 46 45 45 45 45 45 45 44 44
48 51 48 44 43 43 43 44 44 41 38 35 33 33 36 39 42 42 42 42 44 44 43 47 48 45 41 41 44 45 45 47 43 41 40 41 43 42 44 48 48 48 48 48 46 46 46 46 48 48 49 50 50 49 48 48 47 47 47 47 48 48 48 48 48 48 48 47 47 47 46 46 45 45 45 45 46 45 44 46 46 47 47 48 48 47 46 46 45 44 43 43 43 43 42 43 42
49 49 48 42 42 38 39 40 43 38 36 35 31 33 37 40 41 41 41 39 41 41 41 39 44 42 41 41 42 43 44 45 41 38 38 40 42 41 42 47 48 48 47 46 46 46 46 47 47 46 45 45 45 47 48 48 48 48 48 48 48 47 47 48 47 47 48 48 48 47 47 46 46 46 46 46 47 46 46 46 46 46 45 46 46 45 45 44 44 43 42 41 42 42 41 41 41
47 49 45 44 41 40 39 37 37 37 37 31 31 33 36 30 33 40 40 39 40 35 38 39 38 41 39 39 40 42 44 43 39 37 41 39 39 38 41 43 48 46 46 46 46 46 46 46 45 44 44 44 44 44 45 46 47 47 47 47 46 45 45 45 45 44 43 43 43 43 42 42 42 43 43 44 44 43 42 43 44 44 43 43 43 44 43 43 42 42 41 41 40 38 38 37 38
49 45 44 41 38 37 36 38 38 36 28 27 30 31 29 27 30 40 27 28 32 35 40 39 37 34 38 40 39 43 44 41 36 35 36 37 39 40 38 37 41 46 46 46 46 46 45 44 43 42 42 43 43 43 44 44 46 46 45 44 44 43 42 42 41 41 40 39 37 36 36 36 36 36 37 36 40 40 39 39 40 42 42 41 40 40 41 41 41 40 40 38 37 34 34 33 33
49 49 40 38 36 34 29 32 24 33 24 25 28 28 27 27 30 27 30 33 31 34 38 34 36 36 38 39 43 44 42 40 37 35 36 36 38 37 39 38 39 40 46 45 45 44 44 43 41 41 41 42 42 42 42 42 42 43 41 41 40 39 38 36 36 36 35 34 34 32 32 30 31 30 30 31 34 34 36 36 36 37 39 39 38 37 39 40 39 38 36 35 34 32 28 27 28
46 41 39 35 33 32 19 18 18 25 24 25 26 28 28 28 29 28 29 31 33 35 34 31 35 39 42 43 42 42 40 37 34 35 36 36 38 37 37 37 37 37 40 42 42 42 43 41 40 40 41 41 41 41 40 40 39 36 32 32 32 32 34 34 32 31 35 31 30 29 28 28 27 28 30 32 30 31 31 32 33 33 35 36 36 34 34 36 35 35 34 33 32 29 26 21 26
37 37 36 33 28 20 16 15 17 21 23 24 24 26 28 27 29 28 30 31 34 34 32 31 35 39 39 39 40 40 38 35 34 35 35 37 37 37 37 37 37 35 36 37 37 37 37 38 40 40 40 39 38 36 35 36 30 28 29 30 33 31 33 34 31 33 31 30 28 26 28 22 21 23 27 31 32 30 29 28 29 31 30 30 30 29 29 30 31 32 31 29 29 27 22 18 18
32 33 31 25 22 17 16 16 17 18 22 24 24 25 25 28 29 29 31 30 32 33 32 32 34 36 38 38 39 39 39 35 35 35 36 37 37 38 37 37 36 35 34 33 33 33 33 33 36 38 37 35 32 31 32 30 29 28 27 27 28 28 30 32 30 31 31 29 28 25 27 29 25 23 30 30 31 33 30 28 28 24 25 24 25 29 25 25 25 26 26 24 29 30 21 17 18
28 30 29 24 15 18 16 17 17 18 20 23 23 23 24 28 28 30 30 29 30 31 33 33 33 35 37 37 37 38 38 37 36 36 36 38 38 39 38 38 36 35 33 32 32 30 30 30 31 32 31 29 28 29 29 28 27 26 26 26 26 26 27 26 27 30 31 29 28 27 29 30 28 26 29 29 27 25 24 24 24 21 23 22 21 23 23 24 24 24 21 25 18 21 22 18 17
22 26 17 15 15 15 17 17 18 18 19 21 22 22 23 24 26 29 28 28 30 31 32 34 34 36 37 37 36 37 37 38 37 38 37 37 37 39 39 39 37 35 33 31 30 30 29 28 28 28 27 28 28 28 26 29 28 26 25 24 24 24 28 24 24 26 28 29 28 29 30 27 26 26 26 26 24 23 22 22 21 20 20 21 27 20 21 20 19 18 18 20 17 17 19 21 19
21 22 15 15 15 16 17 17 19 18 19 21 21 21 22 22 23 26 26 28 26 27 30 36 35 36 37 37 37 37 36 37 38 38 39 39 38 38 35 35 34 33 33 31 30 30 28 26 27 28 28 29 29 28 27 28 27 26 25 25 24 23 24 23 24 24 25 28 28 30 28 25 24 24 25 23 22 22 21 20 19 19 19 17 20 18 20 18 17 17 17 18 15 17 18 18 19
20 24 15 14 15 16 17 17 20 18 19 19 21 23 21 22 23 25 25 19 23 26 28 36 37 37 37 37 38 38 38 36 37 38 39 39 38 37 33 32 32 30 32 31 29 30 30 28 27 28 29 30 29 28 26 26 27 25 25 30 25 29 26 23 23 24 28 25 26 21 25 24 23 22 23 22 22 21 21 20 20 19 18 16 19 18 17 16 15 16 17 18 12 15 14 16 16
22 27 15 14 15 15 16 17 18 18 19 19 20 22 20 23 20 19 22 21 23 25 27 31 36 37 37 36 38 38 38 38 37 37 37 37 37 36 33 33 30 31 31 30 29 28 29 29 28 28 29 29 28 27 26 26 25 25 26 24 25 31 23 23 24 25 23 23 24 26 28 22 21 21 22 20 20 21 20 20 18 17 17 16 18 15 16 15 15 15 16 14 14 14 13 15 17
19 15 15 15 15 16 16 17 17 18 18 21 20 19 20 19 20 20 19 21 23 24 26 28 32 35 36 36 37 38 38 38 38 38 38 38 36 33 32 28 28 30 32 30 30 28 27 27 28 28 29 29 27 27 27 26 25 25 24 24 24 30 24 23 24 22 21 21 22 25 25 24 22 21 21 20 20 21 20 20 20 17 15 15 16 14 17 14 14 16 16 14 15 14 11 15 14
30 17 15 14 15 15 17 16 17 18 18 19 17 18 18 19 20 19 21 20 22 23 25 26 28 32 35 35 36 37 38 38 39 37 36 36 36 34 31 28 28 29 32 28 28 28 28 26 27 28 30 32 28 27 27 25 26 24 25 24 23 24 24 25 23 20 20 20 22 26 25 24 21 20 19 19 20 21 20 18 17 17 15 14 14 15 17 15 14 16 16 15 14 13 12 12 14
15 15 16 15 15 15 15 16 16 17 16 18 16 15 18 18 21 19 19 20 21 22 24 25 27 28 31 34 34 35 35 35 35 34 33 29 29 31 32 28 28 28 30 28 28 28 26 25 27 28 27 28 27 26 28 24 23 24 24 22 22 23 24 22 21 20 25 20 24 25 23 22 26 21 20 19 18 18 17 17 17 16 15 14 16 16 17 17 16 14 18 17 17 14 12 12 13
14 17 19 15 14 14 15 14 15 17 14 16 19 13 14 17 16 18 19 19 20 22 23 24 26 27 28 29 31 33 34 34 35 35 33 30 30 28 27 28 26 27 29 28 28 28 24 24 25 24 24 25 23 24 24 23 23 24 23 21 22 26 22 20 19 19 19 21 22 24 23 22 24 21 21 21 26 18 19 18 17 20 16 15 16 19 20 18 13 13 13 17 12 13 13 13 17
15 14 18 22 19 15 15 15 15 15 14 16 15 16 16 13 16 17 18 18 19 21 22 23 25 27 29 30 30 32 34 33 33 34 32 32 31 29 29 29 28 28 29 28 27 26 23 25 24 22 21 20 21 21 21 20 22 22 23 21 25 23 20 19 21 19 21 20 21 22 22 21 21 19 21 20 19 17 18 18 18 16 15 16 16 18 16 13 10 12 13 11 16 15 10 13 9
18 26 28 20 19 18 14 14 14 13 15 14 15 16 13 11 14 17 18 18 19 21 22 22 23 26 29 31 31 30 31 32 31 30 30 32 32 31 30 30 29 29 30 27 26 25 24 22 21 18 21 18 23 20 21 18 19 21 20 20 21 22 18 18 19 18 18 17 18 20 21 21 19 19 20 19 19 17 16 16 17 16 13 17 14 15 12 11 11 10 15 10 12 11 10 15 10
19 25 21 22 17 23 14 15 13 10 14 13 21 17 15 12 15 16 18 18 18 20 21 22 23 26 28 30 31 31 31 32 32 30 29 30 31 31 32 32 30 29 27 27 26 25 21 20 23 17 18 17 19 18 17 17 18 19 20 23 20 21 19 17 17 16 16 16 18 18 19 19 19 18 20 20 17 15 15 15 16 16 15 16 15 14 14 11 11 14 14 12 9 11 14 8 9
22 19 17 16 21 22 17 14 15 17 15 13 16 18 13 12 14 15 16 17 17 17 18 21 23 26 28 29 30 30 31 30 31 31 31 29 29 30 31 31 29 28 27 26 24 24 21 18 23 17 17 16 17 18 17 18 16 16 17 18 19 21 17 17 16 15 14 14 14 16 18 19 17 18 18 20 16 15 14 14 15 14 18 13 14 13 11 17 11 14 11 15 10 8 10 8 6
22 24 18 21 13 16 16 17 18 26 16 17 15 15 14 13 13 14 15 16 16 16 17 19 22 25 27 28 28 29 29 30 30 30 31 29 30 30 29 31 29 27 25 26 24 23 22 18 19 17 16 16 16 16 14 15 15 16 17 18 22 18 16 16 16 15 13 13 13 15 17 18 18 17 16 17 16 16 15 14 14 14 14 13 13 12 11 11 9 9 6 11 9 8 7 7 7
21 22 19 18 17 17 18 22 21 17 26 19 15 14 15 15 15 14 14 15 16 16 16 17 20 23 26 27 27 27 27 28 29 31 31 30 29 30 29 26 27 25 24 24 23 22 22 17 20 21 18 17 15 15 15 15 14 12 14 15 15 16 16 16 15 13 14 11 11 16 17 16 18 16 17 16 15 17 14 14 14 13 13 13 12 11 9 13 12 10 9 9 12 9 7 9 7
22 22 23 23 19 17 17 21 25 24 24 25 22 20 19 17 16 15 14 15 15 15 15 16 17 22 24 26 27 27 26 26 29 31 31 30 29 30 29 26 27 26 23 23 24 22 22 17 17 20 19 16 14 13 17 17 16 15 12 13 14 17 14 17 15 13 12 11 14 16 16 15 15 15 16 15 15 15 12 13 14 14 12 11 11 9 9 10 10 10 10 9 9 10 14 9 7
19 25 26 23 22 19 24 25 26 28 27 21 18 18 16 14 14 14 15 14 14 14 14 15 17 17 20 23 25 27 27 27 30 32 31 30 29 30 28 25 25 26 23 22 22 22 21 19 18 18 19 16 14 15 15 16 15 14 13 11 12 12 12 12 13 13 12 11 13 15 17 14 15 15 16 14 15 18 13 13 13 14 12 11 11 10 10 10 9 8 9 10 9 8 6 8 7
27 26 23 19 23 14 22 22 22 27 24 18 16 13 9 7 7 8 7 14 14 14 14 14 15 16 17 19 21 24 25 29 30 30 31 29 28 30 27 24 26 24 24 21 22 22 21 19 17 17 18 16 14 14 16 15 15 14 12 11 10 11 12 13 11 10 11 11 13 15 16 14 15 14 16 13 14 14 11 12 13 13 11 10 10 12 10 18 12 9 7 4 8 6 5 5 7
27 22 19 16 17 19 27 26 25 23 27 18 13 7 9 9 8 6 4 4 11 14 15 15 15 15 16 17 19 20 21 23 25 26 29 29 29 27 24 24 23 24 24 22 21 21 20 20 19 16 18 18 16 15 16 16 15 16 13 12 10 10 10 11 10 13 13 11 11 15 15 13 14 14 14 15 13 12 10 11 11 12 10 12 11 9 9 9 8 7 6 0 -5 4 5 8 2
21 19 15 12 21 15 8 27 26 25 18 15 14 18 17 15 14 13 12 6 5 13 17 18 19 15 16 16 17 19 18 20 21 22 24 27 28 25 23 23 22 22 23 22 21 20 20 21 19 17 17 18 17 16 19 15 15 14 15 14 12 10 9 12 10 11 11 10 11 13 14 12 14 13 13 13 13 12 9 9 10 10 10 11 8 5 5 4 7 6 4 7 1 -11 -8 -4 5
24 23 16 9 20 17 15 9 12 18 20 24 22 19 16 16 13 3 12 11 9 17 17 18 20 21 20 21 19 19 17 20 20 20 20 22 24 24 23 23 22 21 22 21 21 20 20 20 20 18 17 17 18 18 17 16 16 16 16 16 17 14 14 12 9 8 8 10 11 11 12 11 13 13 12 12 13 11 10 10 10 9 9 8 8 5 3 3 4 5 4 3 0 -9 -16 -17 6
8 24 23 17 18 18 16 15 15 11 3 25 24 5 -3 1 -3 -1 17 16 13 14 17 18 20 20 21 19 19 20 21 20 20 20 20 21 20 22 22 23 22 21 20 21 21 20 20 20 20 19 17 17 17 17 17 16 17 15 14 15 14 13 11 11 7 7 6 6 8 9 10 10 12 12 11 11 12 12 10 10 10 8 7 7 7 4 2 3 1 2 2 -1 -3 -7 -19 -21 -15
1 19 25 22 18 20 19 17 17 11 4 22 24 4 7 3 4 2 18 17 13 18 19 19 20 20 19 21 19 19 19 19 20 20 21 20 21 20 21 21 21 20 20 20 20 20 19 19 19 19 18 17 17 17 17 17 15 14 13 13 14 13 11 11 8 7 6 5 8 7 8 8 10 10 10 11 11 12 10 10 10 8 6 4 8 1 -5 -2 -1 -1 2 -2 -8 2 -9 -17 -16
2 18 22 22 22 19 19 20 18 13 17 19 22 13 7 8 6 6 17 16 14 15 17 18 17 17 18 18 19 20 19 19 21 21 20 20 20 20 20 20 20 20 20 20 19 19 19 19 19 19 19 19 17 17 17 17 15 15 14 13 15 13 11 10 7 6 6 8 5 5 5 6 7 7 8 9 10 11 10 9 8 7 4 2 5 -2 -7 -9 -5 1 3 -2 -6 -4 -8 -13 -14
13 24 27 24 24 23 23 19 14 14 12 13 18 23 12 11 6 9 12 5 10 11 13 18 19 18 17 20 20 20 21 21 20 22 21 20 20 20 20 20 20 21 21 20 19 19 19 18 19 19 19 19 18 17 17 16 17 15 14 14 13 15 12 12 11 12 9 9 4 3 2 3 4 5 6 8 9 9 12 8 7 5 3 0 7 -2 -8 -10 -10 -4 -2 -4 -9 -10 -9 -10 -15
29 27 27 25 27 25 24 16 12 9 8 11 13 19 8 4 -3 -3 11 9 3 -1 -3 3 18 18 18 20 20 21 21 23 22 21 21 22 21 21 21 20 21 21 22 23 20 19 19 19 19 19 19 19 19 18 18 16 16 18 15 14 13 12 14 13 12 10 10 8 5 3 2 1 2 3 4 5 8 8 9 9 6 4 2 -0 5 -3 -9 -12 -13 -9 -4 -6 -9 -12 -14 -11 -17
27 27 25 23 23 21 19 16 11 9 10 12 20 17 6 -0 -4 -8 10 13 9 1 3 1 7 12 17 20 22 24 23 24 25 23 21 22 23 22 22 22 22 21 22 22 22 20 19 20 19 19 18 19 19 18 18 17 15 16 15 14 13 12 12 13 12 11 10 10 8 5 3 1 1 2 3 4 6 7 7 9 5 3 1 4 4 -4 -9 -12 -12 -13 -7 -7 -7 -12 -15 -15 -3
26 18 13 7 4 15 11 11 10 9 9 10 9 13 16 -5 -4 -2 2 3 10 10 5 4 6 7 14 20 24 23 24 24 26 26 25 24 23 23 23 23 23 23 23 22 22 22 21 20 20 19 18 18 18 18 18 17 17 16 15 15 14 13 12 12 12 12 11 10 9 7 4 1 -0 1 1 2 3 5 6 6 6 2 -1 -3 -2 -4 -10 -12 -11 -14 -12 -9 -9 -13 -15 -13 -12
22 16 13 6 2 5 2 5 10 12 10 4 1 13 6 1 -4 -4 -2 -0 5 14 16 10 12 11 13 16 18 26 26 26 27 27 27 28 26 25 24 23 24 24 24 23 23 23 22 20 19 19 18 18 18 18 18 18 17 16 16 15 15 15 13 13 13 12 12 11 10 8 5 2 -1 -1 -0 0 1 3 5 5 2 -3 -5 -5 -5 -5 -10 -12 -11 -13 -15 -13 -12 -13 -16 -17 -17
15 10 -0 -1 1 -5 -7 -3 -5 0 8 3 1 6 -10 -10 -9 -6 -8 -8 -2 13 17 16 14 12 11 17 20 19 28 27 27 27 27 28 28 28 27 25 25 25 24 24 24 24 23 23 20 19 19 19 18 18 18 18 18 17 16 16 15 15 15 14 13 13 12 12 12 10 7 4 1 -2 -2 -1 -1 0 3 4 3 -3 -8 -7 -6 -7 -9 -12 -11 -12 -14 -16 -16 -16 -18 -18 -18
1 13 -5 -0 1 -7 -7 -4 -1 1 4 -5 7 -4 5 -5 7 4 -3 1 5 9 9 12 13 14 16 19 19 23 24 25 27 27 27 27 28 28 29 28 27 26 25 25 24 24 24 23 22 20 19 19 19 18 18 18 18 18 17 16 16 15 15 15 14 14 13 12 12 11 9 6 3 1 -2 -2 -1 -1 0 2 3 -1 -6 -7 -4 -5 -7 -10 -10 -11 -12 -15 -15 -17 -17 -16 -17
6 7 3 -1 8 -4 2 1 -1 0 3 1 -0 1 5 3 0 3 4 4 2 8 9 11 11 14 18 19 21 22 23 24 25 25 26 26 26 26 28 30 29 28 27 26 25 25 24 24 23 22 20 19 19 20 19 18 18 18 17 17 16 16 17 16 15 15 14 12 12 12 11 8 6 4 1 -1 -2 -2 -2 -1 1 -1 -5 -6 -6 -5 -7 -9 -11 -12 -13 -13 -14 -14 -17 -17 -16
-0 -6 3 4 6 -4 3 1 5 5 0 2 4 -3 -1 -2 -2 0 1 1 4 2 5 9 12 14 18 20 23 22 24 25 26 26 26 26 26 27 27 28 29 30 29 27 26 25 25 24 24 23 22 21 20 20 19 19 18 18 17 17 17 16 15 15 15 14 14 13 12 11 11 10 8 5 3 3 -1 -2 -3 -3 -3 -0 -3 -4 -5 -4 -4 -8 -11 -10 -11 -11 -11 -13 -12 -15 -15
1 -1 -4 17 13 9 4 1 1 2 2 -3 -4 3 4 -4 0 -2 -10 -10 1 2 3 4 10 11 14 16 20 21 20 23 26 27 28 27 27 27 28 28 28 29 29 29 28 27 26 25 24 24 23 22 22 21 20 19 19 18 17 17 17 16 16 15 15 14 14 13 13 12 12 11 10 8 6 7 -0 -2 -3 3 -4 -3 -2 -3 -4 -5 -5 -7 -5 -9 -10 -11 -11 -13 -11 -11 -11
0 2 16 8 5 2 -5 -1 -2 -3 -2 1 -2 -2 2 1 5 -3 -3 -9 -5 -3 -2 -4 -2 3 6 10 13 14 15 12 20 21 23 25 26 26 27 27 28 28 28 29 29 28 28 27 26 25 24 23 23 23 21 21 19 20 20 18 17 17 17 16 15 15 14 14 13 12 12 11 11 9 8 6 2 -2 -3 -2 -3 -3 -1 -2 -4 -5 -6 -8 -8 -8 -9 -11 -11 -13 -12 -9 -10
21 17 6 13 -4 8 1 4 4 1 1 -4 0 -2 -0 7 9 5 2 -0 -6 -8 -5 -8 -7 -6 -4 5 10 11 13 15 17 19 19 20 21 21 22 25 27 27 27 28 28 28 28 28 27 26 25 24 24 23 22 21 20 20 20 20 18 17 17 17 16 15 14 14 13 13 12 11 11 11 8 6 4 -1 -2 -3 -3 -3 -3 -2 -3 -4 -5 -8 -8 -9 -9 -11 -12 -12 -11 -9 -8
8 6 6 8 4 3 2 5 6 3 0 -0 0 -2 3 -3 -1 -1 -1 -6 -7 -5 -6 -6 -5 -5 3 5 12 14 14 16 18 19 18 20 20 19 18 19 21 24 27 28 28 28 28 28 27 27 26 25 24 23 22 22 21 20 19 19 19 18 17 17 16 15 14 14 13 15 12 12 12 12 10 8 6 1 -2 -3 -3 -2 -3 -2 -4 -4 -5 -7 -7 -8 -8 -8 -9 -9 -8 -6 -4
9 10 11 9 9 2 -2 -1 6 4 -0 0 -1 -3 2 -1 -0 -2 -3 -4 -6 -4 -2 -4 -1 -2 2 8 9 10 15 16 15 16 15 17 17 17 17 20 21 20 21 24 27 27 27 27 27 27 26 25 24 23 22 22 21 20 19 18 18 18 18 17 16 15 15 14 14 13 14 12 12 11 11 8 6 1 -2 -3 -3 -3 -3 -3 -3 -4 -5 -6 -5 -5 -6 -5 -4 -3 -3 -2 -1